Location: Zürich
(47.3769°N, 8.5417°E)
Time: 09:53:06
(UTC+02:00)

ISS - Pass Details

Date: 25 May 2021
Orbit: 417 x 422 km, 51.6° (Epoch: 13 June)

Event Time Altitude Azimuth Distance (km) Brightness Sun altitude
Rises 22:11:18 0° 289° (WNW) 2,365 1.4 -9.1°
Reaches altitude 10° 22:13:28 10° 297° (WNW) 1,501 0.4 -9.4°
Maximum altitude 22:16:42 44° 11° (N) 595 -2.7 -9.8°
Drops below altitude 10° 22:19:57 10° 85° (E) 1,501 -1.3 -10.1°
Enters shadow 22:20:44 - 88° (E) 1,809 -0.9 -10.2°
